When you browse on this site, cookies collect data to enhance your experience and personalize the content and advertising you see.
Visit our Privacy Policy to learn more. By continuing to use the site, you agree to this use of cookies and data.
  • In Schweiz
  • Länderverzeichnis
  • Für 7 Tage
  • Wassertemperatur
  • Satellitenkarten
  • Wetterkarte
  • Widgets
  • user-avatar
    Anmelden

    Stündliche Wetter Killarney

    Heute, 14 Dezember, Freitag

    Zeit Temperatur Niederschläge Wind Luftdruck Luftfeuchtigkeit
    00:00 +7°C° 0 mm 2 m/S 756 mmHg 94%
    01:00 +7°C° 0 mm 3 m/S 756 mmHg 94%
    02:00 +7°C° 0 mm 3 m/S 756 mmHg 94%
    03:00 +6°C° 0 mm 4 m/S 756 mmHg 94%
    04:00 +6°C° 0 mm 4 m/S 756 mmHg 94%
    05:00 +6°C° 0 mm 5 m/S 755 mmHg 95%
    06:00 +6°C° 0 mm 5 m/S 755 mmHg 93%
    07:00 +7°C° 0 mm 6 m/S 755 mmHg 92%
    08:00 +6°C° 0 mm 7 m/S 755 mmHg 90%
    09:00 +6°C° 0.3 mm 7 m/S 755 mmHg 89%
    10:00 +7°C° 0.3 mm 8 m/S 755 mmHg 88%
    11:00 +7°C° 0.3 mm 8 m/S 754 mmHg 87%
    12:00 +7°C° 0.4 mm 8 m/S 754 mmHg 88%
    13:00 +7°C° 0.4 mm 8 m/S 753 mmHg 90%
    14:00 +7°C° 0.4 mm 8 m/S 753 mmHg 91%
    15:00 +8°C° 0.1 mm 7 m/S 753 mmHg 92%
    16:00 +9°C° 0.1 mm 7 m/S 752 mmHg 93%
    17:00 +9°C° 0.1 mm 6 m/S 752 mmHg 95%
    18:00 +9°C° 0.2 mm 5 m/S 752 mmHg 95%
    19:00 +10°C° 0.2 mm 5 m/S 751 mmHg 96%
    20:00 +10°C° 0.2 mm 5 m/S 751 mmHg 96%
    21:00 +11°C° 0.4 mm 4 m/S 750 mmHg 96%
    22:00 +11°C° 0.4 mm 4 m/S 750 mmHg 96%
    23:00 +11°C° 0.4 mm 4 m/S 749 mmHg 96%

    Morgen, 15 Dezember, Samstag

    Zeit Temperatur Niederschläge Wind Luftdruck Luftfeuchtigkeit
    00:00 +11°C° 2 mm 4 m/S 748 mmHg 97%
    01:00 +11°C° 2 mm 4 m/S 747 mmHg 97%
    02:00 +11°C° 2 mm 4 m/S 746 mmHg 97%
    03:00 +12°C° 0.7 mm 4 m/S 745 mmHg 97%
    04:00 +12°C° 0.7 mm 4 m/S 745 mmHg 97%
    05:00 +12°C° 0.7 mm 4 m/S 744 mmHg 96%
    06:00 +12°C° 1.2 mm 5 m/S 743 mmHg 95%
    07:00 +12°C° 1.2 mm 5 m/S 742 mmHg 94%
    08:00 +11°C° 1.2 mm 6 m/S 741 mmHg 93%
    09:00 +11°C° 1.3 mm 6 m/S 740 mmHg 94%
    10:00 +11°C° 1.3 mm 6 m/S 739 mmHg 94%
    11:00 +11°C° 1.3 mm 6 m/S 738 mmHg 95%
    12:00 +10°C° 1 mm 8 m/S 737 mmHg 93%
    13:00 +8°C° 1 mm 9 m/S 737 mmHg 92%
    14:00 +7°C° 1 mm 11 m/S 737 mmHg 90%
    15:00 +7°C° 0.3 mm 11 m/S 738 mmHg 86%
    16:00 +6°C° 0.3 mm 11 m/S 740 mmHg 82%
    17:00 +4°C° 0.3 mm 11 m/S 741 mmHg 78%
    18:00 +5°C° 0.1 mm 10 m/S 742 mmHg 78%
    19:00 +5°C° 0.1 mm 9 m/S 743 mmHg 79%
    20:00 +5°C° 0.1 mm 8 m/S 745 mmHg 79%
    21:00 +5°C° 0.2 mm 8 m/S 745 mmHg 80%
    22:00 +4°C° 0.2 mm 8 m/S 745 mmHg 81%
    23:00 +4°C° 0.2 mm 7 m/S 745 mmHg 82%

    übermorgen, 16 Dezember, Sonntag

    Zeit Temperatur Niederschläge Wind Luftdruck Luftfeuchtigkeit
    00:00 +4°C° 0.1 mm 7 m/S 745 mmHg 82%
    01:00 +4°C° 0.1 mm 7 m/S 746 mmHg 83%
    02:00 +3°C° 0.1 mm 7 m/S 746 mmHg 83%
    03:00 +3°C° 0.2 mm 7 m/S 746 mmHg 83%
    04:00 +3°C° 0.2 mm 6 m/S 746 mmHg 84%
    05:00 +3°C° 0.2 mm 6 m/S 746 mmHg 85%
    06:00 +3°C° 0.1 mm 6 m/S 746 mmHg 85%
    07:00 +3°C° 0.1 mm 6 m/S 746 mmHg 85%
    08:00 +3°C° 0.1 mm 5 m/S 746 mmHg 85%
    09:00 +4°C° 0.1 mm 6 m/S 746 mmHg 82%
    10:00 +5°C° 0.1 mm 6 m/S 747 mmHg 79%
    11:00 +6°C° 0.1 mm 7 m/S 747 mmHg 76%
    12:00 +6°C° 0.2 mm 7 m/S 747 mmHg 76%
    13:00 +6°C° 0.2 mm 7 m/S 747 mmHg 77%
    14:00 +5°C° 0.2 mm 7 m/S 747 mmHg 77%
    15:00 +5°C° 0.1 mm 7 m/S 748 mmHg 79%
    16:00 +4°C° 0.1 mm 6 m/S 748 mmHg 81%
    17:00 +4°C° 0.1 mm 6 m/S 749 mmHg 83%
    18:00 +4°C° 0.1 mm 6 m/S 749 mmHg 84%
    19:00 +3°C° 0.1 mm 6 m/S 750 mmHg 84%
    20:00 +3°C° 0.1 mm 5 m/S 751 mmHg 85%
    21:00 +3°C° 0 mm 5 m/S 751 mmHg 85%
    22:00 +3°C° 0 mm 5 m/S 751 mmHg 85%
    23:00 +3°C° 0 mm 5 m/S 752 mmHg 85%

    17 Dezember, Montag

    Zeit Temperatur Niederschläge Wind Luftdruck Luftfeuchtigkeit
    00:00 +3°C° 0 mm 5 m/S 752 mmHg 85%
    01:00 +3°C° 0 mm 5 m/S 752 mmHg 86%
    02:00 +3°C° 0 mm 6 m/S 752 mmHg 87%
    03:00 +4°C° 0 mm 6 m/S 751 mmHg 88%
    04:00 +4°C° 0 mm 7 m/S 751 mmHg 88%
    05:00 +5°C° 0 mm 7 m/S 751 mmHg 88%
    06:00 +6°C° 0.1 mm 8 m/S 750 mmHg 87%
    07:00 +6°C° 0.1 mm 9 m/S 750 mmHg 86%
    08:00 +7°C° 0.1 mm 10 m/S 749 mmHg 86%
    09:00 +8°C° 0.4 mm 11 m/S 748 mmHg 86%
    10:00 +8°C° 0.4 mm 12 m/S 747 mmHg 87%
    11:00 +9°C° 0.4 mm 13 m/S 746 mmHg 87%
    12:00 +9°C° 1.8 mm 14 m/S 745 mmHg 88%
    13:00 +9°C° 1.8 mm 14 m/S 744 mmHg 88%
    14:00 +9°C° 1.8 mm 15 m/S 743 mmHg 89%
    15:00 +9°C° 3.3 mm 14 m/S 743 mmHg 89%
    16:00 +9°C° 3.3 mm 12 m/S 742 mmHg 90%
    17:00 +8°C° 3.3 mm 11 m/S 742 mmHg 90%
    18:00 +8°C° 1.9 mm 9 m/S 742 mmHg 90%
    19:00 +8°C° 1.9 mm 7 m/S 742 mmHg 91%
    20:00 +7°C° 1.9 mm 5 m/S 742 mmHg 91%
    21:00 +7°C° 1 mm 5 m/S 741 mmHg 92%
    22:00 +6°C° 1 mm 5 m/S 740 mmHg 93%
    23:00 +6°C° 1 mm 5 m/S 740 mmHg 94%

    18 Dezember, Dienstag

    Zeit Temperatur Niederschläge Wind Luftdruck Luftfeuchtigkeit
    00:00 +6°C° 1.2 mm 5 m/S 739 mmHg 94%
    01:00 +6°C° 1.2 mm 4 m/S 739 mmHg 94%
    02:00 +5°C° 1.2 mm 4 m/S 738 mmHg 94%
    03:00 +5°C° 0.2 mm 4 m/S 738 mmHg 92%
    04:00 +6°C° 0.2 mm 5 m/S 737 mmHg 91%
    05:00 +6°C° 0.2 mm 5 m/S 737 mmHg 89%
    06:00 +5°C° 0.1 mm 6 m/S 738 mmHg 88%
    07:00 +5°C° 0.1 mm 6 m/S 738 mmHg 87%
    08:00 +5°C° 0.1 mm 6 m/S 738 mmHg 86%
    09:00 +5°C° 0.2 mm 7 m/S 739 mmHg 84%
    10:00 +6°C° 0.2 mm 7 m/S 739 mmHg 81%
    11:00 +6°C° 0.2 mm 8 m/S 739 mmHg 79%
    12:00 +6°C° 0.2 mm 8 m/S 739 mmHg 78%
    13:00 +6°C° 0.2 mm 8 m/S 739 mmHg 78%
    14:00 +6°C° 0.2 mm 8 m/S 739 mmHg 77%
    15:00 +5°C° 0.2 mm 9 m/S 740 mmHg 78%
    16:00 +3°C° 0.2 mm 9 m/S 740 mmHg 79%
    17:00 +3°C° 0.2 mm 10 m/S 741 mmHg 79%
    18:00 +3°C° 0.6 mm 9 m/S 741 mmHg 79%
    19:00 +3°C° 0.6 mm 9 m/S 741 mmHg 79%
    20:00 +5°C° 0.6 mm 9 m/S 742 mmHg 79%
    21:00 +3°C° 0.2 mm 9 m/S 742 mmHg 80%
    22:00 +3°C° 0.2 mm 9 m/S 742 mmHg 80%
    23:00 +4°C° 0.2 mm 8 m/S 742 mmHg 81%

    19 Dezember, Mittwoch

    Zeit Temperatur Niederschläge Wind Luftdruck Luftfeuchtigkeit
    00:00 +3°C° 0.2 mm 9 m/S 742 mmHg 80%
    01:00 +3°C° 0.2 mm 9 m/S 742 mmHg 80%
    02:00 +3°C° 0.2 mm 9 m/S 742 mmHg 79%
    03:00 +3°C° 0.2 mm 10 m/S 742 mmHg 79%
    04:00 +3°C° 0.2 mm 10 m/S 741 mmHg 79%
    05:00 +4°C° 0.2 mm 11 m/S 741 mmHg 78%
    06:00 +4°C° 0.7 mm 11 m/S 741 mmHg 80%
    07:00 +4°C° 0.7 mm 11 m/S 741 mmHg 81%
    08:00 +6°C° 0.7 mm 11 m/S 741 mmHg 82%
    09:00 +6°C° 0.7 mm 11 m/S 741 mmHg 81%
    10:00 +5°C° 0.7 mm 12 m/S 741 mmHg 80%
    11:00 +5°C° 0.7 mm 12 m/S 741 mmHg 80%
    12:00 +5°C° 0.7 mm 12 m/S 741 mmHg 79%
    13:00 +5°C° 0.7 mm 12 m/S 741 mmHg 79%
    14:00 +5°C° 0.7 mm 12 m/S 740 mmHg 78%
    15:00 +6°C° 0.6 mm 11 m/S 741 mmHg 79%
    16:00 +6°C° 0.6 mm 11 m/S 741 mmHg 80%
    17:00 +6°C° 0.6 mm 11 m/S 741 mmHg 80%
    18:00 +6°C° 0.4 mm 10 m/S 741 mmHg 80%
    19:00 +5°C° 0.4 mm 10 m/S 741 mmHg 80%
    20:00 +5°C° 0.4 mm 10 m/S 742 mmHg 80%
    21:00 +5°C° 0.4 mm 10 m/S 742 mmHg 80%
    22:00 +5°C° 0.4 mm 9 m/S 743 mmHg 81%
    23:00 +5°C° 0.4 mm 9 m/S 743 mmHg 81%
    Mehr zeigen